This demonstration page uses our WeatherBlox Daily Observations layout. Learn more.

Left ArrowRight Arrow

39.29038, -76.61219

Hourly Observations for April 18, 2022

Temp ( °F °C ) Dew Point ( °F °C ) Humidity (%) Winds ( mph kmh ) Pressure ( in mb ) Visibility ( mi km ) Precip ( " mm )
12:54 am 00:54 Mostly Cloudy 45 7.2 21 -6.1 39 39 NE 6 9 30.33 1027 10 16 0.00 0.00
1:54 am 01:54 Partly Cloudy 43 6.1 22 -5.6 43 43 NNE 8 13 30.33 1027 10 16 0.00 0.00
2:54 am 02:54 Mostly Cloudy 44 6.7 22 -5.6 41 41 NE 9 15 30.33 1027 10 16 0.00 0.00
3:54 am 03:54 Mostly Cloudy 43 6.1 24 -4.4 47 47 NE 9 15 30.32 1027 10 16 0.00 0.00
4:54 am 04:54 Mostly Cloudy 43 6.1 24 -4.4 47 47 NE 7 11 30.30 1026 10 16 0.00 0.00
5:54 am 05:54 Partly Cloudy 44 6.7 22 -5.6 41 41 ENE 10 17 30.29 1026 10 16 0.00 0.00
6:54 am 06:54 Mostly Cloudy 44 6.7 23 -5 43 43 E 12 19 30.29 1026 10 16 0.00 0.00
7:54 am 07:54 Mostly Cloudy 45 7.2 23 -5 42 42 E 16 26 30.30 1026 10 16 0.00 0.00
8:54 am 08:54 Cloudy 46 7.8 25 -3.9 44 44 ESE 9 15 30.29 1026 10 16 0.00 0.00
9:54 am 09:54 Cloudy 47 8.3 28 -2.2 48 48 E 16 26 30.27 1025 10 16 0.00 0.00
10:54 am 10:54 Cloudy 47 8.3 31 -0.6 54 54 E 17 28 30.25 1024 10 16 0.00 0.00
11:54 am 11:54 Cloudy 48 8.9 31 -0.6 52 52 E 16 26 30.23 1024 10 16 0.00 0.00
12:54 pm 12:54 Cloudy 49 9.4 30 -1.1 48 48 ESE 9 15 30.22 1023 10 16 0.00 0.00
1:54 pm 13:54 Cloudy 49 9.4 32 0 52 52 E 18 30 30.16 1021 10 16 0.00 0.00
2:54 pm 14:54 Cloudy with Light Rain 46 7.8 36 2.2 68 68 ENE 23 37 30.11 1020 6 10 0.03 0.76
3:39 pm 15:39 Cloudy with Light Rain 46 7.8 39 3.9 77 77 ENE 13 20 30.12 1020 6 10 0.02 0.51
3:54 pm 15:54 Cloudy with Light Rain 46 7.8 40 4.4 79 79 ENE 12 19 30.11 1020 3 5 0.06 1.52
4:54 pm 16:54 Cloudy with Rain 46 7.8 42 5.6 86 86 ENE 17 28 30.04 1017 3 4 0.16 4.06
5:39 pm 17:39 Cloudy with Rain 45 7.2 42 5.6 90 90 ENE 22 35 30.02 1016 3 5 0.12 3.05
5:54 pm 17:54 Cloudy with Rain 45 7.2 42 5.6 90 90 ENE 21 33 29.99 1016 6 10 0.13 3.30
6:54 pm 18:54 Cloudy with Light Rain 45 7.2 41 5 86 86 ENE 18 30 29.91 1013 7 11 0.00 0.00
7:34 pm 19:34 Cloudy with Heavy Rain 45 7.2 41 5 86 86 ENE 14 22 29.88 1012 4 6 0.12 3.05
7:54 pm 19:54 Cloudy with Rain 45 7.2 42 5.6 90 90 ENE 18 30 29.83 1010 4 6 0.22 5.59
8:04 pm 20:04 Cloudy with Rain 45 7.2 42 5.6 90 90 E 21 33 29.85 1011 5 8 0.04 1.02
8:54 pm 20:54 Cloudy with Heavy Rain 45 7.2 43 6.1 93 93 NE 8 13 29.85 1011 2 3 0.23 5.84
9:05 pm 21:05 Cloudy with Rain 45 7.2 43 6.1 93 93 WNW 6 9 29.87 1011 3 5 0.05 1.27
9:44 pm 21:44 Cloudy with Rain 44 6.7 42 5.6 93 93 NW 7 11 29.87 1011 3 5 0.25 6.35
9:54 pm 21:54 Cloudy with Rain 44 6.7 42 5.6 93 93 NW 7 11 29.86 1011 3 5 0.28 7.11
10:36 pm 22:36 Cloudy with Light Rain 43 6.1 41 5 93 93 NNW 10 17 29.84 1010 5 8 0.06 1.52
10:54 pm 22:54 Cloudy with Light Rain 43 6.1 41 5 93 93 NW 15 24 29.82 1010 5 8 0.08 2.03
11:54 pm 23:54 Cloudy with Light Rain 41 5 38 3.3 89 89 NW 15 24 29.80 1009 4 6 0.02 0.51

Powered by AerisWeather